Voltar ao catálogo

NOAA 16 DEB

AtivoSSO
NORAD 41279·DEBRIS·🇺🇸 United States

Lançado Sep 21, 2000 de Vandenberg Space Force Base

Loading…

Próximas Passagens (próximas 24 horas)

TLE

AtualizadoSource: Space-Track

Época: Sep 12, 2026, 02:39 UTC

1 41279U 00055GF  26255.11080151  .00001437  00000-0  72428-3 0  9991
2 41279  98.7446 313.2193 0030458  27.3688 332.9084 14.17655173551087

Acompanhe NOAA 16 DEB em tempo real com AllMySat

Download on the App Store